Time,TemperatureF,DewpointF,PressureIn,WindDirection,WindDirectionDegrees,WindSpeedMPH,WindSpeedGustMPH,Humidity,HourlyPrecipIn,Conditions,Clouds,dailyrainin,SoftwareType,DateUTC
2013-09-22 00:01:00,82.0,75.2,29.81,ENE,57,0.0,3.0,80,0.00,,,0.00,Wunderground v.1.15,2013-09-22 04:01:00,
2013-09-22 00:02:00,82.0,75.2,29.80,ESE,106,2.0,4.0,80,0.00,,,0.00,Wunderground v.1.15,2013-09-22 04:02:00,
2013-09-22 00:06:00,82.0,75.2,29.80,ESE,111,0.0,4.0,80,0.00,,,0.00,Wunderground v.1.15,2013-09-22 04:06:00,
2013-09-22 00:11:00,82.0,75.2,29.80,East,92,0.0,2.0,80,0.00,,,0.00,Wunderground v.1.15,2013-09-22 04:11:00,
2013-09-22 00:17:00,81.9,75.1,29.80,East,82,3.0,3.0,80,0.00,,,0.00,Wunderground v.1.15,2013-09-22 04:17:00,
2013-09-22 00:22:00,81.9,75.1,29.80,SE,146,0.0,2.0,80,0.00,,,0.00,Wunderground v.1.15,2013-09-22 04:22:00,
2013-09-22 00:27:00,81.9,75.1,29.80,ESE,121,1.0,5.0,80,0.00,,,0.00,Wunderground v.1.15,2013-09-22 04:27:00,
2013-09-22 00:32:00,82.0,75.2,29.80,SSE,168,4.0,6.0,80,0.00,,,0.00,Wunderground v.1.15,2013-09-22 04:32:00,
2013-09-22 00:37:00,82.0,74.8,29.80,SSE,153,1.0,6.0,79,0.00,,,0.00,Wunderground v.1.15,2013-09-22 04:37:00,
2013-09-22 00:42:00,82.0,74.8,29.80,SSE,152,2.0,3.0,79,0.00,,,0.00,Wunderground v.1.15,2013-09-22 04:42:00,
2013-09-22 00:47:00,82.0,74.8,29.80,SE,142,0.0,4.0,79,0.00,,,0.00,Wunderground v.1.15,2013-09-22 04:47:00,
2013-09-22 00:52:00,82.0,74.8,29.80,ENE,57,1.0,3.0,79,0.00,,,0.00,Wunderground v.1.15,2013-09-22 04:52:00,
2013-09-22 00:57:00,82.1,74.9,29.80,SSW,201,1.0,5.0,79,0.00,,,0.00,Wunderground v.1.15,2013-09-22 04:57:00,
2013-09-22 01:02:00,82.1,75.3,29.80,South,171,1.0,2.0,80,0.00,,,0.00,Wunderground v.1.15,2013-09-22 05:02:00,
2013-09-22 01:07:00,82.1,75.3,29.80,South,187,0.0,3.0,80,0.00,,,0.00,Wunderground v.1.15,2013-09-22 05:07:00,
2013-09-22 01:11:00,82.1,75.3,29.80,ESE,110,2.0,3.0,80,0.00,,,0.00,Wunderground v.1.15,2013-09-22 05:11:00,
2013-09-22 01:17:00,82.1,75.3,29.80,SSE,167,2.0,6.0,80,0.00,,,0.00,Wunderground v.1.15,2013-09-22 05:17:00,
2013-09-22 01:22:00,82.1,75.3,29.80,ESE,120,3.0,3.0,80,0.00,,,0.00,Wunderground v.1.15,2013-09-22 05:22:00,
2013-09-22 01:27:00,82.1,75.3,29.79,East,88,0.0,4.0,80,0.00,,,0.00,Wunderground v.1.15,2013-09-22 05:27:00,
2013-09-22 01:32:00,82.1,75.3,29.79,SSE,150,0.0,5.0,80,0.00,,,0.00,Wunderground v.1.15,2013-09-22 05:32:00,
2013-09-22 01:37:00,82.1,75.3,29.79,East,101,0.0,5.0,80,0.00,,,0.00,Wunderground v.1.15,2013-09-22 05:37:00,
2013-09-22 01:42:00,82.1,75.3,29.79,East,101,0.0,1.0,80,0.00,,,0.00,Wunderground v.1.15,2013-09-22 05:42:00,
2013-09-22 01:47:00,82.1,75.7,29.79,East,101,0.0,1.0,81,0.00,,,0.00,Wunderground v.1.15,2013-09-22 05:47:00,
2013-09-22 01:52:00,82.1,76.1,29.79,SE,140,0.0,2.0,82,0.00,,,0.00,Wunderground v.1.15,2013-09-22 05:52:00,
2013-09-22 01:57:00,82.0,76.3,29.79,SW,224,0.0,3.0,83,0.00,,,0.00,Wunderground v.1.15,2013-09-22 05:57:00,
2013-09-22 02:02:00,81.9,76.6,29.79,SW,224,0.0,2.0,84,0.00,,,0.00,Wunderground v.1.15,2013-09-22 06:02:00,
2013-09-22 02:07:00,81.6,76.3,29.79,SW,224,0.0,2.0,84,0.00,,,0.00,Wunderground v.1.15,2013-09-22 06:07:00,
2013-09-22 02:12:00,81.5,76.2,29.79,SW,224,0.0,2.0,84,0.00,,,0.00,Wunderground v.1.15,2013-09-22 06:12:00,
2013-09-22 02:17:00,81.3,76.4,29.78,SW,224,0.0,2.0,85,0.00,,,0.00,Wunderground v.1.15,2013-09-22 06:17:00,
2013-09-22 02:22:00,81.2,76.3,29.78,SW,224,0.0,0.0,85,0.00,,,0.00,Wunderground v.1.15,2013-09-22 06:22:00,
2013-09-22 02:27:00,81.1,76.2,29.78,SW,224,0.0,0.0,85,0.00,,,0.00,Wunderground v.1.15,2013-09-22 06:27:00,
2013-09-22 02:32:00,80.9,76.3,29.78,SW,224,0.0,0.0,86,0.00,,,0.00,Wunderground v.1.15,2013-09-22 06:32:00,
2013-09-22 02:37:00,80.7,76.1,29.77,SW,223,0.0,1.0,86,0.00,,,0.00,Wunderground v.1.15,2013-09-22 06:37:00,
2013-09-22 02:42:00,80.6,75.7,29.77,SE,137,1.0,2.0,85,0.00,,,0.00,Wunderground v.1.15,2013-09-22 06:42:00,
2013-09-22 02:47:00,80.7,75.4,29.77,SE,144,1.0,3.0,84,0.00,,,0.00,Wunderground v.1.15,2013-09-22 06:47:00,
2013-09-22 02:52:00,80.8,75.5,29.76,SSE,150,0.0,2.0,84,0.00,,,0.00,Wunderground v.1.15,2013-09-22 06:52:00,
2013-09-22 02:57:00,80.9,75.6,29.76,SSE,160,0.0,3.0,84,0.00,,,0.00,Wunderground v.1.15,2013-09-22 06:57:00,
2013-09-22 03:02:00,81.0,75.7,29.76,SE,132,0.0,1.0,84,0.00,,,0.00,Wunderground v.1.15,2013-09-22 07:02:00,
2013-09-22 03:07:00,81.0,75.3,29.77,SSE,162,0.0,3.0,83,0.00,,,0.00,Wunderground v.1.15,2013-09-22 07:07:00,
2013-09-22 03:12:00,81.1,75.4,29.77,SSE,159,1.0,4.0,83,0.00,,,0.00,Wunderground v.1.15,2013-09-22 07:12:00,
2013-09-22 03:17:00,81.2,75.5,29.77,SSE,150,3.0,5.0,83,0.00,,,0.00,Wunderground v.1.15,2013-09-22 07:17:00,
2013-09-22 03:22:00,81.2,75.5,29.76,ESE,108,0.0,5.0,83,0.00,,,0.00,Wunderground v.1.15,2013-09-22 07:22:00,
2013-09-22 03:27:00,81.3,75.6,29.76,ESE,108,0.0,5.0,83,0.00,,,0.00,Wunderground v.1.15,2013-09-22 07:27:00,
2013-09-22 03:32:00,81.4,75.7,29.77,SSE,150,0.0,5.0,83,0.00,,,0.00,Wunderground v.1.15,2013-09-22 07:32:00,
2013-09-22 03:37:00,81.4,75.7,29.76,South,179,0.0,5.0,83,0.00,,,0.00,Wunderground v.1.15,2013-09-22 07:37:00,
2013-09-22 03:42:00,81.4,75.7,29.76,SE,129,0.0,2.0,83,0.00,,,0.00,Wunderground v.1.15,2013-09-22 07:42:00,
2013-09-22 03:47:00,81.4,75.7,29.76,SSE,156,0.0,4.0,83,0.00,,,0.00,Wunderground v.1.15,2013-09-22 07:47:00,
2013-09-22 03:52:00,81.4,75.7,29.76,ESE,108,1.0,2.0,83,0.00,,,0.00,Wunderground v.1.15,2013-09-22 07:52:00,
2013-09-22 03:57:00,81.4,75.7,29.76,SSW,194,3.0,7.0,83,0.00,,,0.00,Wunderground v.1.15,2013-09-22 07:57:00,
2013-09-22 04:02:00,81.4,75.7,29.76,ESE,123,0.0,2.0,83,0.00,,,0.00,Wunderground v.1.15,2013-09-22 08:02:00,
2013-09-22 04:07:00,81.4,75.7,29.76,SSE,160,2.0,3.0,83,0.00,,,0.00,Wunderground v.1.15,2013-09-22 08:07:00,
2013-09-22 04:12:00,81.3,75.6,29.76,SSE,147,0.0,3.0,83,0.00,,,0.00,Wunderground v.1.15,2013-09-22 08:12:00,
2013-09-22 04:17:00,81.2,75.5,29.76,SSE,148,0.0,3.0,83,0.00,,,0.00,Wunderground v.1.15,2013-09-22 08:17:00,
2013-09-22 04:22:00,81.2,75.9,29.76,SE,135,0.0,4.0,84,0.00,,,0.00,Wunderground v.1.15,2013-09-22 08:22:00,
2013-09-22 04:27:00,81.2,75.9,29.76,South,175,0.0,4.0,84,0.00,,,0.00,Wunderground v.1.15,2013-09-22 08:27:00,
2013-09-22 04:32:00,81.2,75.9,29.76,South,176,0.0,1.0,84,0.00,,,0.00,Wunderground v.1.15,2013-09-22 08:32:00,
2013-09-22 04:37:00,81.2,75.9,29.76,South,176,0.0,1.0,84,0.00,,,0.00,Wunderground v.1.15,2013-09-22 08:37:00,
2013-09-22 04:42:00,81.2,76.3,29.76,SSW,204,0.0,2.0,85,0.00,,,0.00,Wunderground v.1.15,2013-09-22 08:42:00,
2013-09-22 04:47:00,81.1,76.2,29.76,SSW,204,0.0,2.0,85,0.00,,,0.00,Wunderground v.1.15,2013-09-22 08:47:00,
2013-09-22 04:52:00,81.1,76.2,29.76,SSW,204,0.0,1.0,85,0.00,,,0.00,Wunderground v.1.15,2013-09-22 08:52:00,
2013-09-22 04:57:00,81.0,76.4,29.76,SSW,204,0.0,1.0,86,0.00,,,0.00,Wunderground v.1.15,2013-09-22 08:57:00,
2013-09-22 05:02:00,80.9,76.3,29.76,SSW,204,0.0,1.0,86,0.00,,,0.00,Wunderground v.1.15,2013-09-22 09:02:00,
2013-09-22 05:07:00,80.9,76.3,29.76,SSW,204,0.0,1.0,86,0.00,,,0.00,Wunderground v.1.15,2013-09-22 09:07:00,
2013-09-22 05:12:00,80.8,76.6,29.76,SSW,204,0.0,1.0,87,0.00,,,0.00,Wunderground v.1.15,2013-09-22 09:12:00,
2013-09-22 05:17:00,80.7,76.5,29.76,SSW,204,0.0,1.0,87,0.00,,,0.00,Wunderground v.1.15,2013-09-22 09:17:00,
2013-09-22 05:22:00,80.7,76.8,29.77,SSW,208,0.0,2.0,88,0.00,,,0.00,Wunderground v.1.15,2013-09-22 09:22:00,
2013-09-22 05:27:00,80.6,76.7,29.76,South,179,0.0,3.0,88,0.00,,,0.00,Wunderground v.1.15,2013-09-22 09:27:00,
2013-09-22 05:32:00,80.5,77.0,29.76,SW,219,0.0,3.0,89,0.00,,,0.00,Wunderground v.1.15,2013-09-22 09:32:00,
2013-09-22 05:37:00,80.3,76.8,29.76,SW,226,0.0,3.0,89,0.00,,,0.00,Wunderground v.1.15,2013-09-22 09:37:00,
2013-09-22 05:42:00,80.2,76.7,29.77,SW,226,1.0,2.0,89,0.00,,,0.00,Wunderground v.1.15,2013-09-22 09:42:00,
2013-09-22 05:47:00,80.1,76.9,29.77,SW,226,0.0,2.0,90,0.00,,,0.00,Wunderground v.1.15,2013-09-22 09:47:00,
2013-09-22 05:52:00,80.0,76.8,29.77,SSW,200,0.0,1.0,90,0.00,,,0.00,Wunderground v.1.15,2013-09-22 09:52:00,
2013-09-22 05:57:00,79.9,76.7,29.77,SSW,201,0.0,2.0,90,0.00,,,0.00,Wunderground v.1.15,2013-09-22 09:57:00,
2013-09-22 06:02:00,79.8,76.6,29.77,SSW,194,0.0,2.0,90,0.00,,,0.00,Wunderground v.1.15,2013-09-22 10:02:00,
2013-09-22 06:07:00,79.8,76.6,29.77,SSW,196,0.0,2.0,90,0.00,,,0.00,Wunderground v.1.15,2013-09-22 10:07:00,
2013-09-22 06:12:00,79.6,76.4,29.77,SSW,196,0.0,1.0,90,0.00,,,0.00,Wunderground v.1.15,2013-09-22 10:12:00,
2013-09-22 06:17:00,79.5,76.3,29.77,SSW,196,0.0,1.0,90,0.00,,,0.00,Wunderground v.1.15,2013-09-22 10:17:00,
2013-09-22 06:22:00,79.4,76.2,29.77,SSW,196,0.0,1.0,90,0.00,,,0.00,Wunderground v.1.15,2013-09-22 10:22:00,
2013-09-22 06:27:00,79.3,76.1,29.77,SSW,196,1.0,2.0,90,0.00,,,0.00,Wunderground v.1.15,2013-09-22 10:27:00,
2013-09-22 06:32:00,79.2,76.0,29.77,SSW,196,0.0,1.0,90,0.00,,,0.00,Wunderground v.1.15,2013-09-22 10:32:00,
2013-09-22 06:37:00,79.1,76.2,29.77,SSW,196,0.0,1.0,91,0.00,,,0.00,Wunderground v.1.15,2013-09-22 10:37:00,
2013-09-22 06:42:00,79.0,76.1,29.77,SSW,196,0.0,1.0,91,0.00,,,0.00,Wunderground v.1.15,2013-09-22 10:42:00,
2013-09-22 06:47:00,78.9,76.0,29.78,SSW,196,0.0,1.0,91,0.00,,,0.00,Wunderground v.1.15,2013-09-22 10:47:00,
2013-09-22 06:52:00,78.8,75.9,29.78,SSW,196,0.0,1.0,91,0.00,,,0.00,Wunderground v.1.15,2013-09-22 10:52:00,
2013-09-22 07:04:00,78.7,75.8,29.79,SSW,196,0.0,1.0,91,0.00,,,0.00,Wunderground v.1.15,2013-09-22 11:04:00,
2013-09-22 07:09:00,78.7,75.8,29.79,SSW,196,0.0,1.0,91,0.00,,,0.00,Wunderground v.1.15,2013-09-22 11:09:00,
2013-09-22 07:14:00,78.6,75.8,29.79,SSW,196,0.0,1.0,91,0.00,,,0.00,Wunderground v.1.15,2013-09-22 11:14:00,
2013-09-22 07:19:00,78.6,75.8,29.79,SSW,196,0.0,1.0,91,0.00,,,0.00,Wunderground v.1.15,2013-09-22 11:19:00,
2013-09-22 07:24:00,78.5,75.7,29.79,SSW,196,0.0,0.0,91,0.00,,,0.00,Wunderground v.1.15,2013-09-22 11:24:00,
2013-09-22 07:29:00,78.5,75.7,29.79,SSW,196,0.0,1.0,91,0.00,,,0.00,Wunderground v.1.15,2013-09-22 11:29:00,
2013-09-22 07:34:00,78.5,75.7,29.79,SSW,196,0.0,0.0,91,0.00,,,0.00,Wunderground v.1.15,2013-09-22 11:34:00,
2013-09-22 07:39:00,78.5,76.0,29.80,SSW,196,0.0,1.0,92,0.00,,,0.00,Wunderground v.1.15,2013-09-22 11:39:00,
2013-09-22 07:44:00,78.6,76.1,29.80,SSW,192,0.0,3.0,92,0.00,,,0.00,Wunderground v.1.15,2013-09-22 11:44:00,
2013-09-22 07:49:00,78.8,75.9,29.80,SSW,192,0.0,3.0,91,0.00,,,0.00,Wunderground v.1.15,2013-09-22 11:49:00,
2013-09-22 07:54:00,79.0,76.1,29.80,SSW,192,0.0,2.0,91,0.00,,,0.00,Wunderground v.1.15,2013-09-22 11:54:00,
2013-09-22 07:59:00,79.2,76.3,29.80,South,190,1.0,2.0,91,0.00,,,0.00,Wunderground v.1.15,2013-09-22 11:59:00,
2013-09-22 08:04:00,79.5,76.3,29.80,SSE,152,1.0,3.0,90,0.00,,,0.00,Wunderground v.1.15,2013-09-22 12:04:00,
2013-09-22 08:09:00,79.8,76.6,29.79,South,181,0.0,3.0,90,0.00,,,0.00,Wunderground v.1.15,2013-09-22 12:09:00,
2013-09-22 08:14:00,80.1,76.6,29.80,South,181,0.0,1.0,89,0.00,,,0.00,Wunderground v.1.15,2013-09-22 12:14:00,
2013-09-22 08:19:00,80.4,76.9,29.80,South,181,0.0,2.0,89,0.00,,,0.00,Wunderground v.1.15,2013-09-22 12:19:00,
2013-09-22 08:24:00,80.7,76.8,29.80,South,177,1.0,3.0,88,0.00,,,0.00,Wunderground v.1.15,2013-09-22 12:24:00,
2013-09-22 08:29:00,81.0,76.8,29.80,South,177,0.0,4.0,87,0.00,,,0.00,Wunderground v.1.15,2013-09-22 12:29:00,
2013-09-22 08:34:00,81.5,77.3,29.80,South,177,0.0,2.0,87,0.00,,,0.00,Wunderground v.1.15,2013-09-22 12:34:00,
2013-09-22 08:39:00,82.0,77.4,29.80,South,177,3.0,4.0,86,0.00,,,0.00,Wunderground v.1.15,2013-09-22 12:39:00,
2013-09-22 08:44:00,82.4,77.4,29.81,South,177,0.0,4.0,85,0.00,,,0.00,Wunderground v.1.15,2013-09-22 12:44:00,
2013-09-22 08:49:00,82.9,77.6,29.81,South,177,1.0,4.0,84,0.00,,,0.00,Wunderground v.1.15,2013-09-22 12:49:00,
2013-09-22 08:54:00,83.3,78.0,29.81,South,178,1.0,3.0,84,0.00,,,0.00,Wunderground v.1.15,2013-09-22 12:54:00,
2013-09-22 08:59:00,83.9,78.2,29.81,South,182,3.0,3.0,83,0.00,,,0.00,Wunderground v.1.15,2013-09-22 12:59:00,
2013-09-22 09:04:00,84.7,78.2,29.81,SSW,210,1.0,4.0,81,0.00,,,0.00,Wunderground v.1.15,2013-09-22 13:04:00,
2013-09-22 09:09:00,85.2,77.9,29.81,SSW,195,2.0,4.0,79,0.00,,,0.00,Wunderground v.1.15,2013-09-22 13:09:00,
2013-09-22 09:14:00,85.7,78.0,29.81,SSW,202,2.0,5.0,78,0.00,,,0.00,Wunderground v.1.15,2013-09-22 13:14:00,
2013-09-22 09:19:00,86.2,78.1,29.81,SE,146,3.0,5.0,77,0.00,,,0.00,Wunderground v.1.15,2013-09-22 13:19:00,
2013-09-22 09:24:00,86.5,77.6,29.81,South,189,3.0,7.0,75,0.00,,,0.00,Wunderground v.1.15,2013-09-22 13:24:00,
2013-09-22 09:29:00,86.7,77.8,29.81,SSW,204,3.0,7.0,75,0.00,,,0.00,Wunderground v.1.15,2013-09-22 13:29:00,
2013-09-22 09:34:00,87.0,78.1,29.81,SSE,156,0.0,5.0,75,0.00,,,0.00,Wunderground v.1.15,2013-09-22 13:34:00,
2013-09-22 09:39:00,87.4,78.1,29.81,SSE,167,4.0,9.0,74,0.00,,,0.00,Wunderground v.1.15,2013-09-22 13:39:00,
2013-09-22 09:44:00,87.4,77.7,29.81,SW,223,2.0,7.0,73,0.00,,,0.00,Wunderground v.1.15,2013-09-22 13:44:00,
2013-09-22 09:49:00,87.5,77.8,29.81,SE,136,5.0,11.0,73,0.00,,,0.00,Wunderground v.1.15,2013-09-22 13:49:00,
2013-09-22 09:54:00,87.8,77.2,29.82,South,186,4.0,7.0,71,0.00,,,0.00,Wunderground v.1.15,2013-09-22 13:54:00,
2013-09-22 09:59:00,88.2,78.4,29.82,South,183,3.0,7.0,73,0.00,,,0.00,Wunderground v.1.15,2013-09-22 13:59:00,
2013-09-22 10:04:00,88.7,77.7,29.82,SE,142,6.0,11.0,70,0.00,,,0.00,Wunderground v.1.15,2013-09-22 14:04:00,
2013-09-22 10:09:00,89.2,77.7,29.82,SE,145,4.0,11.0,69,0.00,,,0.00,Wunderground v.1.15,2013-09-22 14:09:00,
2013-09-22 10:14:00,89.6,78.1,29.82,South,183,3.0,6.0,69,0.00,,,0.00,Wunderground v.1.15,2013-09-22 14:14:00,
2013-09-22 10:19:00,90.1,77.7,29.82,South,191,7.0,7.0,67,0.00,,,0.00,Wunderground v.1.15,2013-09-22 14:19:00,
2013-09-22 10:24:00,90.2,77.3,29.82,South,190,6.0,10.0,66,0.00,,,0.00,Wunderground v.1.15,2013-09-22 14:24:00,
2013-09-22 10:29:00,90.2,77.3,29.82,SSE,158,3.0,10.0,66,0.00,,,0.00,Wunderground v.1.15,2013-09-22 14:29:00,
2013-09-22 10:34:00,90.2,77.8,29.82,South,171,4.0,7.0,67,0.00,,,0.00,Wunderground v.1.15,2013-09-22 14:34:00,
2013-09-22 10:39:00,89.9,77.5,29.82,South,177,3.0,13.0,67,0.00,,,0.00,Wunderground v.1.15,2013-09-22 14:39:00,
2013-09-22 10:44:00,89.7,77.3,29.82,SSE,163,4.0,6.0,67,0.00,,,0.00,Wunderground v.1.15,2013-09-22 14:44:00,
2013-09-22 10:49:00,89.5,77.5,29.82,SSE,156,4.0,10.0,68,0.00,,,0.00,Wunderground v.1.15,2013-09-22 14:49:00,
2013-09-22 10:54:00,89.3,78.2,29.82,SE,129,4.0,9.0,70,0.00,,,0.00,Wunderground v.1.15,2013-09-22 14:54:00,
2013-09-22 10:59:00,89.2,76.8,29.82,South,181,6.0,13.0,67,0.00,,,0.00,Wunderground v.1.15,2013-09-22 14:59:00,
2013-09-22 11:04:00,88.9,77.4,29.82,South,189,10.0,13.0,69,0.00,,,0.00,Wunderground v.1.15,2013-09-22 15:04:00,
2013-09-22 11:09:00,88.8,77.7,29.82,SSE,167,6.0,15.0,70,0.00,,,0.00,Wunderground v.1.15,2013-09-22 15:09:00,
2013-09-22 11:14:00,88.8,77.3,29.82,South,181,4.0,10.0,69,0.00,,,0.00,Wunderground v.1.15,2013-09-22 15:14:00,
2013-09-22 11:19:00,88.6,75.8,29.82,ESE,105,3.0,11.0,66,0.00,,,0.00,Wunderground v.1.15,2013-09-22 15:19:00,
2013-09-22 11:24:00,88.6,77.1,29.82,South,173,2.0,9.0,69,0.00,,,0.00,Wunderground v.1.15,2013-09-22 15:24:00,
2013-09-22 11:29:00,88.9,77.4,29.82,East,82,4.0,4.0,69,0.00,,,0.00,Wunderground v.1.15,2013-09-22 15:29:00,
2013-09-22 11:34:00,89.1,77.6,29.82,South,173,3.0,10.0,69,0.00,,,0.00,Wunderground v.1.15,2013-09-22 15:34:00,
2013-09-22 11:39:00,89.1,77.2,29.81,SSE,165,3.0,5.0,68,0.00,,,0.00,Wunderground v.1.15,2013-09-22 15:39:00,
2013-09-22 11:44:00,89.0,76.6,29.81,ESE,120,4.0,10.0,67,0.00,,,0.00,Wunderground v.1.15,2013-09-22 15:44:00,
2013-09-22 11:49:00,89.2,76.8,29.81,SSE,163,5.0,5.0,67,0.00,,,0.00,Wunderground v.1.15,2013-09-22 15:49:00,
2013-09-22 11:54:00,89.4,76.5,29.81,South,170,4.0,13.0,66,0.00,,,0.00,Wunderground v.1.15,2013-09-22 15:54:00,
2013-09-22 11:59:00,89.7,77.3,29.81,SSE,160,1.0,4.0,67,0.00,,,0.00,Wunderground v.1.15,2013-09-22 15:59:00,
2013-09-22 12:04:00,89.9,77.0,29.81,SE,125,1.0,9.0,66,0.00,,,0.00,Wunderground v.1.15,2013-09-22 16:04:00,
2013-09-22 12:09:00,90.3,77.4,29.81,East,93,5.0,5.0,66,0.00,,,0.00,Wunderground v.1.15,2013-09-22 16:09:00,
2013-09-22 12:14:00,90.5,77.1,29.81,South,171,2.0,12.0,65,0.00,,,0.00,Wunderground v.1.15,2013-09-22 16:14:00,
2013-09-22 12:19:00,90.5,77.1,29.81,South,169,6.0,6.0,65,0.00,,,0.00,Wunderground v.1.15,2013-09-22 16:19:00,
2013-09-22 12:24:00,90.5,77.6,29.81,ESE,106,4.0,10.0,66,0.00,,,0.00,Wunderground v.1.15,2013-09-22 16:24:00,
2013-09-22 12:29:00,90.9,77.0,29.80,SE,129,5.0,5.0,64,0.00,,,0.00,Wunderground v.1.15,2013-09-22 16:29:00,
2013-09-22 12:34:00,90.9,76.6,29.80,South,169,2.0,8.0,63,0.00,,,0.00,Wunderground v.1.15,2013-09-22 16:34:00,
2013-09-22 12:39:00,91.1,76.7,29.80,ENE,74,4.0,4.0,63,0.00,,,0.00,Wunderground v.1.15,2013-09-22 16:39:00,
2013-09-22 12:44:00,90.9,76.6,29.80,SSE,167,6.0,14.0,63,0.00,,,0.00,Wunderground v.1.15,2013-09-22 16:44:00,
2013-09-22 12:49:00,91.1,77.2,29.80,East,94,4.0,4.0,64,0.00,,,0.00,Wunderground v.1.15,2013-09-22 16:49:00,
2013-09-22 12:54:00,91.1,77.2,29.80,East,90,3.0,10.0,64,0.00,,,0.00,Wunderground v.1.15,2013-09-22 16:54:00,
2013-09-22 12:59:00,91.3,77.4,29.80,ESE,112,4.0,4.0,64,0.00,,,0.00,Wunderground v.1.15,2013-09-22 16:59:00,
2013-09-22 13:04:00,91.0,77.1,29.80,ENE,73,4.0,9.0,64,0.00,,,0.00,Wunderground v.1.15,2013-09-22 17:04:00,
2013-09-22 13:09:00,90.8,78.3,29.79,SE,134,2.0,3.0,67,0.00,,,0.00,Wunderground v.1.15,2013-09-22 17:09:00,
2013-09-22 13:14:00,91.1,78.2,29.79,SSE,162,5.0,9.0,66,0.00,,,0.00,Wunderground v.1.15,2013-09-22 17:14:00,
2013-09-22 13:19:00,91.4,78.0,29.79,South,171,6.0,7.0,65,0.00,,,0.00,Wunderground v.1.15,2013-09-22 17:19:00,
2013-09-22 13:25:00,91.4,78.0,29.79,South,181,4.0,7.0,65,0.00,,,0.00,Wunderground v.1.15,2013-09-22 17:25:00,
2013-09-22 13:30:00,91.4,77.5,29.79,ESE,117,6.0,6.0,64,0.00,,,0.00,Wunderground v.1.15,2013-09-22 17:30:00,
2013-09-22 13:35:00,91.0,78.1,29.78,SE,137,4.0,10.0,66,0.00,,,0.00,Wunderground v.1.15,2013-09-22 17:35:00,
2013-09-22 13:40:00,91.4,78.4,29.78,ENE,75,4.0,5.0,66,0.00,,,0.00,Wunderground v.1.15,2013-09-22 17:40:00,
2013-09-22 13:45:00,91.0,78.1,29.78,SE,140,4.0,9.0,66,0.00,,,0.00,Wunderground v.1.15,2013-09-22 17:45:00,
2013-09-22 13:50:00,90.5,77.6,29.78,ESE,119,2.0,5.0,66,0.00,,,0.00,Wunderground v.1.15,2013-09-22 17:50:00,
2013-09-22 13:55:00,90.3,77.8,29.78,ESE,110,9.0,9.0,67,0.00,,,0.00,Wunderground v.1.15,2013-09-22 17:55:00,
2013-09-22 14:00:00,89.7,77.7,29.78,SSE,151,10.0,11.0,68,0.00,,,0.00,Wunderground v.1.15,2013-09-22 18:00:00,
2013-09-22 14:05:00,89.2,76.8,29.79,South,183,1.0,11.0,67,0.00,,,0.00,Wunderground v.1.15,2013-09-22 18:05:00,
2013-09-22 14:10:00,88.9,77.0,29.78,SE,132,5.0,7.0,68,0.00,,,0.00,Wunderground v.1.15,2013-09-22 18:10:00,
2013-09-22 14:15:00,88.7,76.3,29.78,SSE,162,3.0,7.0,67,0.00,,,0.00,Wunderground v.1.15,2013-09-22 18:15:00,
2013-09-22 14:20:00,88.7,75.9,29.78,SE,136,5.0,6.0,66,0.00,,,0.00,Wunderground v.1.15,2013-09-22 18:20:00,
2013-09-22 14:25:00,89.1,76.7,29.78,East,98,8.0,12.0,67,0.00,,,0.00,Wunderground v.1.15,2013-09-22 18:25:00,
2013-09-22 14:30:00,89.4,76.1,29.78,SE,145,3.0,6.0,65,0.00,,,0.00,Wunderground v.1.15,2013-09-22 18:30:00,
2013-09-22 14:35:00,89.7,77.3,29.77,SE,129,4.0,12.0,67,0.00,,,0.00,Wunderground v.1.15,2013-09-22 18:35:00,
2013-09-22 14:40:00,89.4,77.4,29.77,SE,128,1.0,3.0,68,0.00,,,0.00,Wunderground v.1.15,2013-09-22 18:40:00,
2013-09-22 14:45:00,89.1,77.2,29.77,SSE,154,6.0,6.0,68,0.00,,,0.00,Wunderground v.1.15,2013-09-22 18:45:00,
2013-09-22 14:50:00,89.0,77.5,29.77,SE,127,3.0,3.0,69,0.00,,,0.00,Wunderground v.1.15,2013-09-22 18:50:00,
2013-09-22 14:55:00,88.7,77.7,29.77,South,176,7.0,12.0,70,0.00,,,0.00,Wunderground v.1.15,2013-09-22 18:55:00,
2013-09-22 15:00:00,88.5,77.5,29.77,East,94,5.0,5.0,70,0.00,,,0.00,Wunderground v.1.15,2013-09-22 19:00:00,
2013-09-22 15:05:00,88.3,77.7,29.77,East,100,2.0,10.0,71,0.00,,,0.00,Wunderground v.1.15,2013-09-22 19:05:00,
2013-09-22 15:10:00,88.1,77.5,29.77,SE,132,3.0,4.0,71,0.00,,,0.00,Wunderground v.1.15,2013-09-22 19:10:00,
2013-09-22 15:15:00,88.1,76.6,29.76,South,182,9.0,10.0,69,0.00,,,0.00,Wunderground v.1.15,2013-09-22 19:15:00,
2013-09-22 15:20:00,88.2,77.2,29.76,SSE,153,4.0,4.0,70,0.00,,,0.00,Wunderground v.1.15,2013-09-22 19:20:00,
2013-09-22 15:25:00,88.4,77.8,29.76,SSE,155,0.0,10.0,71,0.00,,,0.00,Wunderground v.1.15,2013-09-22 19:25:00,
2013-09-22 15:30:00,88.8,77.7,29.76,South,173,3.0,5.0,70,0.00,,,0.00,Wunderground v.1.15,2013-09-22 19:30:00,
2013-09-22 15:35:00,89.0,77.9,29.76,SE,146,2.0,6.0,70,0.00,,,0.00,Wunderground v.1.15,2013-09-22 19:35:00,
2013-09-22 15:40:00,89.2,77.7,29.76,SSW,203,3.0,7.0,69,0.00,,,0.00,Wunderground v.1.15,2013-09-22 19:40:00,
2013-09-22 15:45:00,89.5,78.4,29.75,SSE,154,5.0,11.0,70,0.00,,,0.00,Wunderground v.1.15,2013-09-22 19:45:00,
2013-09-22 15:50:00,89.6,78.5,29.75,South,171,4.0,6.0,70,0.00,,,0.00,Wunderground v.1.15,2013-09-22 19:50:00,
2013-09-22 15:55:00,90.0,77.6,29.75,SE,139,2.0,8.0,67,0.00,,,0.00,Wunderground v.1.15,2013-09-22 19:55:00,
2013-09-22 16:00:00,90.2,78.2,29.76,SSE,150,6.0,10.0,68,0.00,,,0.00,Wunderground v.1.15,2013-09-22 20:00:00,
2013-09-22 16:05:00,90.3,78.7,29.76,SSW,192,7.0,11.0,69,0.00,,,0.00,Wunderground v.1.15,2013-09-22 20:05:00,
2013-09-22 16:10:00,90.1,79.0,29.76,South,171,9.0,12.0,70,0.00,,,0.00,Wunderground v.1.15,2013-09-22 20:10:00,
2013-09-22 16:15:00,89.9,79.2,29.75,SSW,202,3.0,12.0,71,0.00,,,0.00,Wunderground v.1.15,2013-09-22 20:15:00,
2013-09-22 16:20:00,90.0,78.9,29.75,SSW,200,6.0,11.0,70,0.00,,,0.00,Wunderground v.1.15,2013-09-22 20:20:00,
2013-09-22 16:25:00,90.1,79.4,29.75,SSE,158,3.0,12.0,71,0.00,,,0.00,Wunderground v.1.15,2013-09-22 20:25:00,
2013-09-22 16:30:00,90.0,78.0,29.74,SSE,163,6.0,7.0,68,0.00,,,0.00,Wunderground v.1.15,2013-09-22 20:30:00,
2013-09-22 16:35:00,89.9,77.0,29.74,SSW,192,1.0,9.0,66,0.00,,,0.00,Wunderground v.1.15,2013-09-22 20:35:00,
2013-09-22 16:40:00,90.2,77.3,29.74,South,179,6.0,8.0,66,0.00,,,0.00,Wunderground v.1.15,2013-09-22 20:40:00,
2013-09-22 16:45:00,90.1,77.2,29.74,South,174,1.0,11.0,66,0.00,,,0.00,Wunderground v.1.15,2013-09-22 20:45:00,
2013-09-22 16:50:00,90.3,76.9,29.74,SSE,158,9.0,9.0,65,0.00,,,0.00,Wunderground v.1.15,2013-09-22 20:50:00,
2013-09-22 16:55:00,90.5,76.7,29.74,South,184,7.0,9.0,64,0.00,,,0.00,Wunderground v.1.15,2013-09-22 20:55:00,
2013-09-22 17:00:00,90.5,76.7,29.74,South,177,2.0,3.0,64,0.00,,,0.00,Wunderground v.1.15,2013-09-22 21:00:00,
2013-09-22 17:05:00,90.4,76.6,29.74,SSE,152,2.0,4.0,64,0.00,,,0.00,Wunderground v.1.15,2013-09-22 21:05:00,
2013-09-22 17:10:00,90.4,76.1,29.74,South,170,2.0,7.0,63,0.00,,,0.00,Wunderground v.1.15,2013-09-22 21:10:00,
2013-09-22 17:15:00,90.6,76.3,29.75,South,181,3.0,7.0,63,0.00,,,0.00,Wunderground v.1.15,2013-09-22 21:15:00,
2013-09-22 17:20:00,90.8,76.0,29.75,SE,133,5.0,7.0,62,0.00,,,0.00,Wunderground v.1.15,2013-09-22 21:20:00,
2013-09-22 17:25:00,90.7,76.8,29.75,SSW,192,5.0,9.0,64,0.00,,,0.00,Wunderground v.1.15,2013-09-22 21:25:00,
2013-09-22 17:30:00,90.7,76.4,29.75,South,170,3.0,6.0,63,0.00,,,0.00,Wunderground v.1.15,2013-09-22 21:30:00,
2013-09-22 17:35:00,90.8,76.0,29.75,SSE,160,3.0,6.0,62,0.00,,,0.00,Wunderground v.1.15,2013-09-22 21:35:00,
2013-09-22 17:40:00,90.9,76.1,29.75,SSW,195,5.0,5.0,62,0.00,,,0.00,Wunderground v.1.15,2013-09-22 21:40:00,
2013-09-22 17:45:00,90.7,76.4,29.75,SSE,147,3.0,8.0,63,0.00,,,0.00,Wunderground v.1.15,2013-09-22 21:45:00,
2013-09-22 17:50:00,90.1,77.2,29.76,ENE,62,3.0,4.0,66,0.00,,,0.00,Wunderground v.1.15,2013-09-22 21:50:00,
2013-09-22 17:56:00,89.2,76.8,29.76,SSE,148,5.0,11.0,67,0.00,,,0.00,Wunderground v.1.15,2013-09-22 21:56:00,
2013-09-22 18:01:00,88.7,76.3,29.76,SSE,154,2.0,5.0,67,0.00,,,0.00,Wunderground v.1.15,2013-09-22 22:01:00,
2013-09-22 18:06:00,88.3,76.8,29.76,NNE,33,4.0,6.0,69,0.00,,,0.00,Wunderground v.1.15,2013-09-22 22:06:00,
2013-09-22 18:11:00,87.9,77.3,29.76,SSE,161,0.0,6.0,71,0.00,,,0.00,Wunderground v.1.15,2013-09-22 22:11:00,
2013-09-22 18:16:00,87.5,77.4,29.76,SSE,168,2.0,6.0,72,0.00,,,0.00,Wunderground v.1.15,2013-09-22 22:16:00,
2013-09-22 18:21:00,87.2,77.5,29.76,ESE,105,2.0,2.0,73,0.00,,,0.00,Wunderground v.1.15,2013-09-22 22:21:00,
2013-09-22 18:26:00,86.9,77.6,29.76,SSW,209,0.0,5.0,74,0.00,,,0.00,Wunderground v.1.15,2013-09-22 22:26:00,
2013-09-22 18:31:00,86.9,77.6,29.76,ESE,106,1.0,3.0,74,0.00,,,0.00,Wunderground v.1.15,2013-09-22 22:31:00,
2013-09-22 18:36:00,86.7,77.8,29.76,South,181,4.0,4.0,75,0.00,,,0.00,Wunderground v.1.15,2013-09-22 22:36:00,
2013-09-22 18:41:00,86.7,77.8,29.76,ESE,112,1.0,2.0,75,0.00,,,0.00,Wunderground v.1.15,2013-09-22 22:41:00,
2013-09-22 18:46:00,86.6,77.7,29.77,SE,137,0.0,6.0,75,0.00,,,0.00,Wunderground v.1.15,2013-09-22 22:46:00,
2013-09-22 18:51:00,86.6,77.7,29.77,East,93,0.0,2.0,75,0.00,,,0.00,Wunderground v.1.15,2013-09-22 22:51:00,
2013-09-22 18:56:00,86.6,78.1,29.77,ESE,113,0.0,2.0,76,0.00,,,0.00,Wunderground v.1.15,2013-09-22 22:56:00,
2013-09-22 19:01:00,86.5,77.6,29.77,South,186,3.0,4.0,75,0.00,,,0.00,Wunderground v.1.15,2013-09-22 23:01:00,
2013-09-22 19:06:00,86.5,78.0,29.78,South,190,3.0,4.0,76,0.00,,,0.00,Wunderground v.1.15,2013-09-22 23:06:00,
2013-09-22 19:11:00,86.3,77.8,29.78,SSE,162,3.0,4.0,76,0.00,,,0.00,Wunderground v.1.15,2013-09-22 23:11:00,
2013-09-22 19:16:00,86.1,78.0,29.78,SSE,168,5.0,6.0,77,0.00,,,0.00,Wunderground v.1.15,2013-09-22 23:16:00,
2013-09-22 19:21:00,86.0,77.9,29.78,SSW,192,1.0,4.0,77,0.00,,,0.00,Wunderground v.1.15,2013-09-22 23:21:00,
2013-09-22 19:26:00,85.8,78.1,29.79,South,173,1.0,5.0,78,0.00,,,0.00,Wunderground v.1.15,2013-09-22 23:26:00,
2013-09-22 19:31:00,85.7,78.4,29.79,SSW,195,4.0,4.0,79,0.00,,,0.00,Wunderground v.1.15,2013-09-22 23:31:00,
2013-09-22 19:36:00,85.6,78.3,29.79,SSE,148,3.0,7.0,79,0.00,,,0.00,Wunderground v.1.15,2013-09-22 23:36:00,
2013-09-22 19:41:00,85.5,78.6,29.79,SSE,163,0.0,3.0,80,0.00,,,0.00,Wunderground v.1.15,2013-09-22 23:41:00,
2013-09-22 19:46:00,85.3,78.4,29.79,SSE,166,6.0,9.0,80,0.00,,,0.00,Wunderground v.1.15,2013-09-22 23:46:00,
2013-09-22 19:51:00,85.2,78.3,29.79,SE,144,2.0,4.0,80,0.00,,,0.00,Wunderground v.1.15,2013-09-22 23:51:00,
2013-09-22 19:56:00,85.2,78.3,29.80,SSE,158,0.0,5.0,80,0.00,,,0.00,Wunderground v.1.15,2013-09-22 23:56:00,
2013-09-22 20:01:00,85.1,78.2,29.79,South,186,2.0,3.0,80,0.00,,,0.00,Wunderground v.1.15,2013-09-23 00:01:00,
2013-09-22 20:06:00,85.1,78.2,29.79,South,174,1.0,3.0,80,0.00,,,0.00,Wunderground v.1.15,2013-09-23 00:06:00,
2013-09-22 20:11:00,85.0,78.5,29.79,South,175,0.0,1.0,81,0.00,,,0.00,Wunderground v.1.15,2013-09-23 00:11:00,
2013-09-22 20:16:00,85.0,78.5,29.80,South,175,0.0,1.0,81,0.00,,,0.00,Wunderground v.1.15,2013-09-23 00:16:00,
2013-09-22 20:21:00,84.9,78.4,29.80,South,175,2.0,3.0,81,0.00,,,0.00,Wunderground v.1.15,2013-09-23 00:21:00,
2013-09-22 20:26:00,84.8,78.3,29.80,SSE,167,1.0,3.0,81,0.00,,,0.00,Wunderground v.1.15,2013-09-23 00:26:00,
2013-09-22 20:31:00,84.8,78.3,29.80,South,186,0.0,4.0,81,0.00,,,0.00,Wunderground v.1.15,2013-09-23 00:31:00,
2013-09-22 20:36:00,84.8,78.3,29.80,SSE,163,1.0,4.0,81,0.00,,,0.00,Wunderground v.1.15,2013-09-23 00:36:00,
2013-09-22 20:41:00,84.8,78.7,29.80,SSE,165,4.0,4.0,82,0.00,,,0.00,Wunderground v.1.15,2013-09-23 00:41:00,
2013-09-22 20:46:00,84.7,78.6,29.81,South,191,1.0,4.0,82,0.00,,,0.00,Wunderground v.1.15,2013-09-23 00:46:00,
2013-09-22 20:51:00,84.7,78.6,29.81,South,177,0.0,3.0,82,0.00,,,0.00,Wunderground v.1.15,2013-09-23 00:51:00,
2013-09-22 20:56:00,84.7,78.6,29.81,ESE,104,1.0,4.0,82,0.00,,,0.00,Wunderground v.1.15,2013-09-23 00:56:00,
2013-09-22 21:01:00,84.7,78.6,29.81,SSE,155,1.0,3.0,82,0.00,,,0.00,Wunderground v.1.15,2013-09-23 01:01:00,
2013-09-22 21:06:00,84.6,78.9,29.82,South,179,2.0,5.0,83,0.00,,,0.00,Wunderground v.1.15,2013-09-23 01:06:00,
2013-09-22 21:11:00,84.6,78.9,29.82,ESE,117,0.0,3.0,83,0.00,,,0.00,Wunderground v.1.15,2013-09-23 01:11:00,
2013-09-22 21:16:00,84.5,78.8,29.82,SSE,155,0.0,4.0,83,0.00,,,0.00,Wunderground v.1.15,2013-09-23 01:16:00,
2013-09-22 21:21:00,84.5,79.1,29.82,South,186,2.0,4.0,84,0.00,,,0.00,Wunderground v.1.15,2013-09-23 01:21:00,
2013-09-22 21:26:00,84.5,79.1,29.82,South,184,2.0,4.0,84,0.00,,,0.00,Wunderground v.1.15,2013-09-23 01:26:00,
2013-09-22 21:31:00,84.5,79.1,29.82,South,178,4.0,4.0,84,0.00,,,0.00,Wunderground v.1.15,2013-09-23 01:31:00,
2013-09-22 21:36:00,84.4,78.7,29.82,South,177,1.0,4.0,83,0.00,,,0.00,Wunderground v.1.15,2013-09-23 01:36:00,
2013-09-22 21:41:00,84.4,78.7,29.82,South,181,1.0,3.0,83,0.00,,,0.00,Wunderground v.1.15,2013-09-23 01:41:00,
2013-09-22 21:46:00,84.3,78.6,29.83,South,186,0.0,4.0,83,0.00,,,0.00,Wunderground v.1.15,2013-09-23 01:46:00,
2013-09-22 21:51:00,84.3,78.6,29.83,South,189,1.0,3.0,83,0.00,,,0.00,Wunderground v.1.15,2013-09-23 01:51:00,
2013-09-22 21:56:00,84.3,78.6,29.83,South,187,1.0,4.0,83,0.00,,,0.00,Wunderground v.1.15,2013-09-23 01:56:00,
2013-09-22 22:01:00,84.2,78.5,29.83,South,179,2.0,2.0,83,0.00,,,0.00,Wunderground v.1.15,2013-09-23 02:01:00,
2013-09-22 22:06:00,84.2,78.5,29.83,South,187,3.0,3.0,83,0.00,,,0.00,Wunderground v.1.15,2013-09-23 02:06:00,
2013-09-22 22:11:00,84.1,78.4,29.83,South,191,1.0,4.0,83,0.00,,,0.00,Wunderground v.1.15,2013-09-23 02:11:00,
2013-09-22 22:16:00,84.0,78.3,29.83,South,183,0.0,4.0,83,0.00,,,0.00,Wunderground v.1.15,2013-09-23 02:16:00,
2013-09-22 22:21:00,83.9,78.2,29.84,SSW,202,0.0,2.0,83,0.00,,,0.00,Wunderground v.1.15,2013-09-23 02:21:00,
2013-09-22 22:26:00,83.9,78.2,29.84,SSW,202,0.0,2.0,83,0.00,,,0.00,Wunderground v.1.15,2013-09-23 02:26:00,
2013-09-22 22:31:00,83.8,77.7,29.84,SW,216,1.0,1.0,82,0.00,,,0.00,Wunderground v.1.15,2013-09-23 02:31:00,
2013-09-22 22:36:00,83.7,77.6,29.84,SSW,208,2.0,4.0,82,0.00,,,0.00,Wunderground v.1.15,2013-09-23 02:36:00,
2013-09-22 22:41:00,83.7,77.6,29.84,SSW,208,0.0,3.0,82,0.00,,,0.00,Wunderground v.1.15,2013-09-23 02:41:00,
2013-09-22 22:46:00,83.6,77.1,29.84,SW,221,0.0,3.0,81,0.00,,,0.00,Wunderground v.1.15,2013-09-23 02:46:00,
2013-09-22 22:51:00,83.5,77.1,29.84,SSW,212,0.0,1.0,81,0.00,,,0.00,Wunderground v.1.15,2013-09-23 02:51:00,
2013-09-22 22:56:00,83.5,77.1,29.84,SW,222,0.0,4.0,81,0.00,,,0.00,Wunderground v.1.15,2013-09-23 02:56:00,
2013-09-22 23:01:00,83.4,77.0,29.84,SSW,193,3.0,4.0,81,0.00,,,0.00,Wunderground v.1.15,2013-09-23 03:01:00,
2013-09-22 23:06:00,83.4,77.0,29.84,SSW,201,0.0,4.0,81,0.00,,,0.00,Wunderground v.1.15,2013-09-23 03:06:00,
2013-09-22 23:11:00,83.3,76.9,29.84,SSW,201,0.0,2.0,81,0.00,,,0.00,Wunderground v.1.15,2013-09-23 03:11:00,
2013-09-22 23:16:00,83.3,76.9,29.84,SSW,206,1.0,3.0,81,0.00,,,0.00,Wunderground v.1.15,2013-09-23 03:16:00,
2013-09-22 23:21:00,83.2,76.8,29.84,SSW,210,0.0,3.0,81,0.00,,,0.00,Wunderground v.1.15,2013-09-23 03:21:00,
2013-09-22 23:26:00,83.2,76.8,29.84,South,189,0.0,3.0,81,0.00,,,0.00,Wunderground v.1.15,2013-09-23 03:26:00,
2013-09-22 23:31:00,83.2,76.8,29.84,SW,224,2.0,2.0,81,0.00,,,0.00,Wunderground v.1.15,2013-09-23 03:31:00,
2013-09-22 23:36:00,83.1,76.7,29.84,SW,224,1.0,3.0,81,0.00,,,0.00,Wunderground v.1.15,2013-09-23 03:36:00,
2013-09-22 23:41:00,83.1,77.0,29.84,SW,224,0.0,1.0,82,0.00,,,0.00,Wunderground v.1.15,2013-09-23 03:41:00,
2013-09-22 23:46:00,83.0,76.9,29.85,SSW,206,0.0,3.0,82,0.00,,,0.00,Wunderground v.1.15,2013-09-23 03:46:00,
2013-09-22 23:51:00,83.0,76.9,29.85,SW,214,0.0,4.0,82,0.00,,,0.00,Wunderground v.1.15,2013-09-23 03:51:00,
2013-09-22 23:56:00,82.9,76.8,29.85,SW,218,2.0,4.0,82,0.00,,,0.00,Wunderground v.1.15,2013-09-23 03:56:00,